Regional Weather Roundup
Issued by NWS Charleston, WV

Home | Current Version | Previous Version | Graphics & Text | Print | Product List | Glossary On
Versions: 1 2 3 4 5 6 7 8 9 10 11 12 13 14 15 16 17 18 19 20 21 22 23 24 25 26 27 28
000
ASUS41 KRLX 192210
RWRRLX
West Virginia Regional Weather Roundup
National Weather Service Charleston WV
600 PM EDT THU OCT 19 2017

Note: "fair" indicates few or no clouds below 12,000 feet with no
significant weather and/or obstructions to visibility.

WVZ003-192300-
Northern Panhandle of West Virginia

CITY           SKY/WX    TMP DP  RH WIND       PRES   REMARKS
WHEELING       CLEAR     68  44  42 SW10      30.16F
$$

WVZ009-192300-
Northwest West Virginia

CITY           SKY/WX    TMP DP  RH WIND       PRES   REMARKS
PARKERSBURG    CLEAR     69  44  40 W6        30.22S
$$

WVZ006-192300-
Western West Virginia

CITY           SKY/WX    TMP DP  RH WIND       PRES   REMARKS
HUNTINGTON     CLEAR     70  46  42 SW5       30.21S
$$

WVZ015-192300-
West Central West Virginia

CITY           SKY/WX    TMP DP  RH WIND       PRES   REMARKS
CHARLESTON     CLEAR     70  44  39 SW6       30.22S
$$

WVZ022-031-192300-
North Central West Virginia

CITY           SKY/WX    TMP DP  RH WIND       PRES   REMARKS
CLARKSBURG     CLEAR     69  42  37 SW8       30.19S
MORGANTOWN     CLEAR     69  41  36 SW5       30.19S
$$

WVZ025-035-042-045-192300-
Southern West Virginia

CITY           SKY/WX    TMP DP  RH WIND       PRES   REMARKS
BECKLEY        CLEAR     66  36  32 W7        30.26S
LOGAN            N/A     68  43  40 CALM      30.24S
BLUEFIELD      CLEAR     65  35  33 NW7       30.28R
LEWISBURG      CLEAR     69  41  36 CALM      30.25R
$$

WVZ047-192300-
Northern Mountains of West Virginia

CITY           SKY/WX    TMP DP  RH WIND       PRES   REMARKS
ELKINS         CLEAR     67  34  29 W8        30.22R
$$

WVZ052-192300-
Eastern Panhandle of West Virginia

CITY           SKY/WX    TMP DP  RH WIND       PRES   REMARKS
MARTINSBURG    CLEAR     70  44  39 S3        30.12F
PETERSBURG     CLEAR     68  46  44 W3        30.15R
$$




USA.gov is the U.S. government's official web portal to all federal, state and local government web resources and services.